Location: Avon
(37.7514°N, 90.2235°W)
Time: 04:02:13
(UTC+00:00)

Explorer 7 - Pass Details

Date: 14 November 2024
Orbit: 456 x 598 km, 50.3° (Epoch: 03 December)

Event Time Altitude Azimuth Distance (km) Brightness Sun altitude
Exits shadow 10:58:57 16° 353° (N) 1,463 8.8 -20.1°
Drops below altitude 10° 11:01:28 10° 30° (NNE) 1,842 9.7 -19.7°
Sets 11:04:31 0° 52° (NE) 2,771 11.0 -19.1°
